Location: Deneb Observatory
(47.2267°N, 100.4953°W)
Time: 22:55:04
(UTC-05:00)

Iridium 66 - Visible Passes

Search period start: 27 May 2015 00:00
Search period end: 06 June 2015 00:00
Orbit: 776 x 779 km, 86.4° (Epoch: 27 May)

Date Brightness Start Highest point End Pass type
(mag) Time Alt. Az. Time Alt. Az. Time Alt. Az.
28 May 8.9 22:58:43 10° W 23:01:27 14° WNW 23:03:56 10° NW visible
29 May 8.6 22:23:17 10° SW 22:27:28 23° WNW 22:31:32 10° NNW visible
01 Jun 8.8 22:24:23 10° WSW 22:27:49 17° WNW 22:31:05 10° NNW visible
04 Jun 9.2 22:26:04 10° W 22:28:15 12° WNW 22:30:11 10° NW visible
